TimePDT,TemperatureF,Dew PointF,Humidity,Sea Level PressureIn,VisibilityMPH,Wind Direction,Wind SpeedMPH,Gust SpeedMPH,PrecipitationIn,Events,Conditions,WindDirDegrees,DateUTC
12:15 AM,60.8,60.8,100,29.88,3.0,SSW,3.5,-,0.01,,Overcast,210,2013-06-26 07:15:00
12:35 AM,60.8,59.0,94,29.88,7.0,SSW,6.9,-,0.02,,Overcast,200,2013-06-26 07:35:00
12:55 AM,60.8,60.8,100,29.88,10.0,South,5.8,-,0.02,,Overcast,170,2013-06-26 07:55:00
1:15 AM,60.8,60.8,100,29.88,9.0,South,5.8,-,N/A,,Mostly Cloudy,180,2013-06-26 08:15:00
1:35 AM,60.8,60.8,100,29.88,9.0,South,5.8,-,0.01,,Overcast,180,2013-06-26 08:35:00
1:55 AM,60.8,60.8,100,29.88,10.0,SSE,4.6,-,0.01,,Overcast,160,2013-06-26 08:55:00
2:15 AM,60.8,60.8,100,29.88,10.0,South,4.6,-,N/A,,Overcast,180,2013-06-26 09:15:00
2:35 AM,60.8,60.8,100,29.89,10.0,SW,4.6,-,N/A,,Overcast,220,2013-06-26 09:35:00
2:55 AM,60.8,59.0,94,29.89,10.0,SW,8.1,-,N/A,,Overcast,220,2013-06-26 09:55:00
3:15 AM,60.8,59.0,94,29.89,10.0,SSW,9.2,-,N/A,,Overcast,210,2013-06-26 10:15:00
3:35 AM,60.8,59.0,94,29.90,10.0,SW,10.4,-,N/A,,Overcast,230,2013-06-26 10:35:00
3:55 AM,60.8,59.0,94,29.91,10.0,SSW,5.8,-,N/A,,Overcast,210,2013-06-26 10:55:00
4:15 AM,60.8,59.0,94,29.90,10.0,South,8.1,-,N/A,,Overcast,190,2013-06-26 11:15:00
4:35 AM,60.8,59.0,94,29.91,10.0,West,4.6,-,0.02,,Overcast,260,2013-06-26 11:35:00
4:55 AM,60.8,59.0,94,29.91,10.0,Calm,Calm,-,0.02,,Overcast,0,2013-06-26 11:55:00
5:15 AM,60.8,59.0,94,29.92,10.0,Calm,Calm,-,N/A,,Overcast,0,2013-06-26 12:15:00
5:35 AM,60.8,59.0,94,29.92,10.0,Calm,Calm,-,N/A,,Overcast,0,2013-06-26 12:35:00
5:55 AM,60.8,59.0,94,29.92,10.0,Calm,Calm,-,N/A,,Overcast,0,2013-06-26 12:55:00
6:15 AM,60.8,59.0,94,29.92,10.0,SSW,3.5,-,N/A,,Overcast,200,2013-06-26 13:15:00
6:35 AM,60.8,60.8,100,29.93,10.0,South,3.5,-,N/A,,Overcast,180,2013-06-26 13:35:00
6:55 AM,60.8,60.8,100,29.93,10.0,South,4.6,-,N/A,,Overcast,170,2013-06-26 13:55:00
7:15 AM,60.8,60.8,100,29.93,10.0,SSE,6.9,-,N/A,,Overcast,160,2013-06-26 14:15:00
7:35 AM,60.8,59.0,94,29.94,10.0,South,3.5,-,N/A,,Overcast,170,2013-06-26 14:35:00
7:55 AM,62.6,60.8,94,29.95,10.0,South,3.5,-,N/A,,Overcast,190,2013-06-26 14:55:00
8:15 AM,62.6,60.8,94,29.95,10.0,South,4.6,-,N/A,,Mostly Cloudy,190,2013-06-26 15:15:00
8:35 AM,62.6,60.8,94,29.95,10.0,South,6.9,-,N/A,,Mostly Cloudy,190,2013-06-26 15:35:00
8:55 AM,64.4,60.8,88,29.96,10.0,South,6.9,-,N/A,,Overcast,170,2013-06-26 15:55:00
9:15 AM,66.2,62.6,88,29.95,10.0,South,9.2,-,N/A,,Mostly Cloudy,190,2013-06-26 16:15:00
9:35 AM,66.2,60.8,83,29.96,10.0,South,6.9,-,N/A,,Mostly Cloudy,170,2013-06-26 16:35:00
9:55 AM,66.2,60.8,83,29.97,10.0,South,10.4,-,N/A,,Mostly Cloudy,180,2013-06-26 16:55:00
10:15 AM,66.2,60.8,83,29.98,10.0,South,6.9,-,N/A,,Overcast,180,2013-06-26 17:15:00
10:35 AM,68.0,60.8,78,29.98,10.0,South,6.9,-,N/A,,Overcast,180,2013-06-26 17:35:00
10:55 AM,69.8,60.8,73,29.98,10.0,South,9.2,-,N/A,,Mostly Cloudy,180,2013-06-26 17:55:00
11:15 AM,71.6,62.6,73,29.98,10.0,South,11.5,-,N/A,,Mostly Cloudy,190,2013-06-26 18:15:00
11:35 AM,71.6,62.6,73,29.98,10.0,South,8.1,-,N/A,,Overcast,190,2013-06-26 18:35:00
11:55 AM,68.0,64.4,88,29.99,10.0,West,11.5,-,N/A,,Overcast,270,2013-06-26 18:55:00
12:15 PM,69.8,64.4,83,29.99,10.0,WSW,6.9,-,N/A,,Overcast,250,2013-06-26 19:15:00
12:35 PM,69.8,64.4,83,30.00,10.0,West,9.2,-,N/A,,Overcast,280,2013-06-26 19:35:00
12:55 PM,69.8,62.6,78,30.01,10.0,West,11.5,-,N/A,,Overcast,270,2013-06-26 19:55:00
1:15 PM,71.6,64.4,78,30.01,10.0,West,11.5,-,N/A,,Overcast,270,2013-06-26 20:15:00
1:35 PM,68.0,62.6,83,30.01,10.0,West,13.8,-,N/A,,Overcast,280,2013-06-26 20:35:00
1:55 PM,69.8,62.6,78,30.02,10.0,West,12.7,-,N/A,,Partly Cloudy,270,2013-06-26 20:55:00
2:15 PM,69.8,62.6,78,30.02,10.0,West,16.1,-,N/A,,Clear,270,2013-06-26 21:15:00
2:35 PM,69.8,62.6,78,30.02,10.0,West,13.8,-,N/A,,Partly Cloudy,280,2013-06-26 21:35:00
2:55 PM,69.8,62.6,78,30.02,10.0,West,16.1,-,N/A,,Scattered Clouds,270,2013-06-26 21:55:00
3:15 PM,71.6,64.4,78,30.02,10.0,West,11.5,-,N/A,,Mostly Cloudy,260,2013-06-26 22:15:00
3:35 PM,73.4,64.4,73,30.02,10.0,ESE,3.5,-,N/A,,Mostly Cloudy,120,2013-06-26 22:35:00
3:55 PM,73.4,64.4,73,30.02,10.0,West,4.6,-,N/A,,Mostly Cloudy,270,2013-06-26 22:55:00
4:15 PM,73.4,64.4,73,30.02,10.0,NW,4.6,-,N/A,,Overcast,320,2013-06-26 23:15:00
4:35 PM,71.6,64.4,78,30.02,10.0,West,10.4,-,N/A,,Mostly Cloudy,280,2013-06-26 23:35:00
4:55 PM,71.6,64.4,78,30.03,10.0,West,9.2,-,N/A,,Mostly Cloudy,270,2013-06-26 23:55:00
5:15 PM,71.6,64.4,78,30.02,10.0,West,12.7,-,N/A,,Partly Cloudy,270,2013-06-27 00:15:00
5:35 PM,71.6,64.4,78,30.03,10.0,West,10.4,-,N/A,,Clear,270,2013-06-27 00:35:00
5:55 PM,71.6,64.4,78,30.02,10.0,West,9.2,-,N/A,,Overcast,270,2013-06-27 00:55:00
6:15 PM,69.8,62.6,78,30.02,10.0,West,8.1,-,N/A,,Overcast,280,2013-06-27 01:15:00
6:35 PM,69.8,64.4,83,30.02,10.0,West,9.2,-,N/A,,Overcast,280,2013-06-27 01:35:00
6:55 PM,69.8,64.4,83,30.02,10.0,West,10.4,-,N/A,,Overcast,280,2013-06-27 01:55:00
7:15 PM,69.8,64.4,83,30.02,10.0,WNW,8.1,-,N/A,,Overcast,300,2013-06-27 02:15:00
7:35 PM,68.0,64.4,88,30.02,9.0,NNW,4.6,-,N/A,,Overcast,330,2013-06-27 02:35:00
7:55 PM,68.0,64.4,88,30.02,7.0,NNW,3.5,-,N/A,,Mostly Cloudy,330,2013-06-27 02:55:00
8:15 PM,68.0,64.4,88,30.02,10.0,WNW,3.5,-,N/A,,Mostly Cloudy,300,2013-06-27 03:15:00
8:35 PM,66.2,62.6,88,30.02,10.0,West,6.9,-,N/A,,Overcast,280,2013-06-27 03:35:00
8:55 PM,66.2,64.4,94,30.02,10.0,WNW,3.5,-,N/A,,Mostly Cloudy,290,2013-06-27 03:55:00
9:15 PM,66.2,62.6,88,30.03,10.0,WNW,3.5,-,N/A,,Mostly Cloudy,290,2013-06-27 04:15:00
9:35 PM,66.2,64.4,94,30.03,10.0,Calm,Calm,-,N/A,,Overcast,0,2013-06-27 04:35:00
9:55 PM,64.4,60.8,88,30.03,10.0,Calm,Calm,-,N/A,,Overcast,0,2013-06-27 04:55:00
10:15 PM,64.4,62.6,94,30.03,10.0,Calm,Calm,-,N/A,,Overcast,0,2013-06-27 05:15:00
10:35 PM,64.4,62.6,94,30.03,10.0,Calm,Calm,-,N/A,,Overcast,0,2013-06-27 05:35:00
10:55 PM,64.4,62.6,94,30.03,10.0,Calm,Calm,-,N/A,,Overcast,0,2013-06-27 05:55:00
11:15 PM,64.4,62.6,94,30.03,10.0,Calm,Calm,-,N/A,,Overcast,0,2013-06-27 06:15:00
11:35 PM,64.4,62.6,94,30.03,10.0,Calm,Calm,-,N/A,,Overcast,0,2013-06-27 06:35:00
11:55 PM,62.6,62.6,100,30.02,10.0,Calm,Calm,-,N/A,,Overcast,0,2013-06-27 06:55:00